Regional Weather Roundup
Issued by NWS Wakefield, VA

Home | Current Version | Previous Version | Graphics & Text | Print | Product List | Glossary On
Versions: 1 2 3 4 5 6 7 8 9 10 11 12 13 14 15 16 17 18 19 20 21 22 23 24 25 26 27 28
000
ASUS41 KAKQ 220815
RWRAKQ

REGIONAL WEATHER ROUNDUP
NATIONAL WEATHER SERVICE WAKEFIELD VA
400 AM EDT SUN APR 22 2018

Note: "fair" indicates few or no clouds below 12,000 feet with no
significant weather and/or obstructions to visibility. * = Denotes
station may not report precipitation (e.g., rain,snow,etc.),
thunder or fog.

VAZ042-051-052>054-056-220900-
NORTHERN VIRGINIA

CITY           SKY/WX    TMP DP  RH WIND       PRES   REMARKS
WASH NATIONAL  CLOUDY    50  40  68 S7        30.38S
DULLES         CLOUDY    48  37  65 S7        30.37S
FORT BELVOIR   FAIR      46  38  75 CALM      30.38S
QUANTICO       FAIR      51  43  74 S7        30.39S
FREDERICKSBRG* FAIR      48  40  72 CALM      30.38R
STAFFORD*      FAIR      46  38  72 CALM      30.41F
WARRENTON      MOCLDY    41  36  82 CALM      30.37S
CULPEPER*      CLOUDY    42  35  78 CALM      30.38F
MANASSAS*      FAIR      44  38  79 CALM      30.38S
LEESBURG*      FAIR      50  36  57 CALM      30.38R
WINCHESTER     FAIR      41  32  70 CALM      30.36S
FRONT ROYAL*   FAIR      43  32  65 CALM      30.33F
LURAY*         FAIR      43  36  75 CALM      30.34S
$$

VAZ048-049-060>072-079>083-220900-
CENTRAL AND SOUTH CENTRAL VIRGINIA

CITY           SKY/WX    TMP DP  RH WIND       PRES   REMARKS
RICHMOND       MOCLDY    45  42  89 SE5       30.38S
CHESTERFIELD*  FAIR      47  41  80 SE5       30.38S
PETERSBURG*    FAIR      43  39  87 CALM      30.38F
HANOVER        FAIR      49  41  74 S5        30.39S
TAPPAHANNOCK*  FAIR      45  40  82 CALM      30.39S
QUINTON*       FAIR      45  38  75 CALM      30.38S
CHARLOTTSVILLE FAIR      52  31  44 NE3       30.34F
GORDONSVILLE*  FAIR      47  42  82 CALM      30.36S
ORANGE*        FAIR      45  41  87 CALM      30.36S
LOUISA*        FAIR      46  39  77 CALM      30.41R
BUMPASS*       FAIR      47  40  76 CALM      30.37R
FARMVILLE*     FAIR      48  41  77 CALM      30.35R
CREWE*         FAIR      48  47  94 S3        30.35S
FORT PICKETT*  FAIR      47  46  94 S6        30.36F
CHASE CITY*    FAIR      47  40  77 SE3       30.35F
CLARKSVILLE*   FAIR      46  39  76 CALM      30.35S
SOUTH HILL*    FAIR      42  42  99 CALM      30.42F
LAWRENCEVILLE* FAIR      45  43  92 SE3       30.37S
EMPORIA*       FAIR      43  41  93 E3        30.40S
$$

VAZ088>098-220900-
SOUTHEAST VIRGINIA

CITY           SKY/WX    TMP DP  RH WIND       PRES   REMARKS
NORFOLK        FAIR      45  37  73 S3        30.39R
VIRGINIA BEACH FAIR      40  38  93 CALM      30.39R
NORFOLK NAVAL  MOCLDY    45  37  73 CALM      30.41R
WEST POINT*    FAIR      39  36  88 CALM      30.41S
SALUDA*        FAIR      40  40  98 CALM      30.39S
NEWPORT NEWS   FAIR      44  38  79 CALM      30.40R
LANGLEY AFB    MOCLDY    46  40  81 S5        30.40R
FORT EUSTIS    MOCLDY    49  41  74 S5        30.37S
WILLIAMSBURG*  FAIR      50  39  66 CALM      30.40S
HR EXEC AP*    FAIR      36  35  96 CALM      30.41R
FRANKLIN*      FAIR      38  36  95 CALM      30.41R
US460-WAKEFLD  FAIR      41  39  93 CALM      30.39S
$$

VAZ020-022-025-037-045-220900-
WEST CENTRAL AND SOUTHWEST VIRGINIA

CITY           SKY/WX    TMP DP  RH WIND       PRES   REMARKS
STAUNTON*      FAIR      42  35  76 CALM      30.35F
WAYNESBORO*    FAIR      49  30  47 CALM      30.33F
HOT SPRINGS VA FAIR      46  21  37 S7        30.32S
LYNCHBURG      FAIR      46  35  65 CALM      30.33S
DANVILLE       FAIR      45  39  79 E3        30.33S
SOUTH BOSTON*  FAIR      45  36  70 E3        30.34F
MARTINSVILLE   FAIR      37  34  89 CALM      30.35R
ROANOKE        FAIR      48  33  56 CALM      30.34R
BLACKSBURG     FAIR      44  33  65 CALM      30.35R
DUBLIN*        FAIR      43  35  73 CALM      30.33R
MARION*        FAIR      44  33  66 CALM      30.33R
HILLSVILLE*    FAIR      49  31  50 S3        30.31R
RICHLANDS*     FAIR      53  -8   8 S3        30.29R
WISE*          FAIR      54  32  43 SE3       30.28F
ABINGDON*      FAIR      47  35  62 CALM      30.28S
$$

MDZ021>025-VAZ099-100-220900-
SOUTHERN MARYLAND AND THE DELMARVA PENINSULA

CITY           SKY/WX    TMP DP  RH WIND       PRES   REMARKS
PATUXENT RIVER FAIR      50  40  68 SW5       30.38S
BAY BRIDGE APT FAIR      50  39  66 SW3       30.38S
LEONARDTOWN    FAIR      45  37  76 SW3       30.39F
DOVER          CLOUDY    43  35  74 N5        30.39R
GEORGETOWN     FAIR      44  39  82 CALM      30.38S
EASTON         FAIR      48  41  79 CALM      30.42S
CAMBRIDGE      MOCLDY    45  43  93 CALM      30.39S
SALISBURY      FAIR      43  41  93 CALM      30.38F
TANGIER        NOT AVBL
OCEAN CITY     FAIR      44  41  89 SW5       30.39S
WALLOPS ISLAND FAIR      44  40  85 CALM      30.40S
ACCOMACK*      FAIR      41  39  91 SW5       30.40S
$$

NCZ012>017-030>032-220900-
NORTH CENTRAL AND EASTERN NORTH CAROLINA

CITY           SKY/WX    TMP DP  RH WIND       PRES   REMARKS
ROANOKE RAPIDS FAIR      41  41 100 CALM      30.38S
RALEIGH        FAIR      48  40  73 SE5       30.36S
ELIZABETH CITY FAIR      46  39  76 SE5       30.40R
AHOSKIE*       FAIR      41  40  97 CALM      30.39S
EDENTON*       FAIR      46  41  82 CALM      30.40S
CURRITUCK*     NOT AVBL
KILL DEVIL HLS FAIR      44  37  76 CALM      30.39R
MANTEO         FAIR      40  37  90 CALM      30.40S
CAPE HATTERAS  FAIR      50  42  74 NE6       30.38F
TARBORO*       NOT AVBL
GOLDSBORO      FAIR      43  38  84 E5        30.35S
WASHINGTON     FAIR      42  40  91 CALM      30.38S
GREENVILLE     FAIR      43  41  93 CALM      30.38F
NEW BERN       FAIR      45  44  97 CALM      30.38S
WILMINGTON     FAIR      49  45  86 CALM      30.34S
$$

VAZ048-220900-
ELSEWHERE

CITY           SKY/WX    TMP DP  RH WIND       PRES   REMARKS
HARRISBURG PA  MOCLDY    42  34  73 CALM      30.38R
BALTIMORE      CLOUDY    47  36  65 CALM      30.37S
ANNAPOLIS      FAIR      51  39  63 CALM      30.38R
ANDREWS AFB    FAIR      47  37  69 S5        30.36F
PHILADELPHIA   MOCLDY    46  27  47 CALM      30.39S
HENDERSON NC   FAIR      45  37  73 S3        30.36S
GREENSBORO     FAIR      50  40  68 S8        30.31F
ROCKY MOUNT    FAIR      42  40  92 CALM      30.37F
$$

VAZ100-220900-
MARINE

STATION/POSITION TIME  TEMP    WIND        PRES    WAVE   SWELL
                       AIR SEA DIR/SP/G            HT/PER HT/PER
                 (UTC) (F)     (DEG/KT/KT) (MB)    (FT/S) (FT/S)
BRANDYWINE LGT   0742   49     340/  8/ 10 1029.4R
CAPE MAY NJ      0748   47 50  340/  5/  7 1028.7R
LEWES DE         0742   45 50  280/  2/  3 1028.6S
15NM E FENWICK I 0750   45 46  240/  6/  6 1029.2F   1/16
OCEAN-CITY-INLET 0742   46 49  240/  4/  5 1029.5F
WACHAPREAGUE VA  0742   44 54  270/  5/  5 1029.4R
THOMAS POINT MD  0800   50 51  200/  6/  7 1029.7R
GOOSES REEF MD   0800   50     210/  8/ 10 1029.1
COVE POINT MD    0742   49     210/  9/ 12 1029.5R
SOLOMONS ISLAND  0742   49 53  200/  4/  6 1028.6F
BISHOPS HEAD MD  0742   51 54  210/  8/ 10 1029.3S
PINEY POINT MD   0742          210/  4/  5   N/A
POTOMAC MD       0800   50 53  210/  8/ 12 1030.1    1/ 2
CAMBRIDGE MD     0742   48 54              1029.6S
LEWISETTA VA     0742   48 54  220/  7/  8 1028.9F
RAPPAHANNOCK LGT 0742          190/ 11/ 12 1029.9R
YORK RVR RNG VA  0742   52     170/  7/  8 1029.8R
YORKTOWN VA      0742   48 56  140/  2/  3 1028.9R
DOMINION TERM VA 0742   50     160/  6/  7 1029.5R
KIPTOPEKE VA     0742      53  180/  5/  6   N/A
CAPE HENRY VA    0742   49     110/  5/  6   N/A
WILLOUBY STN VA  0742   49     360/  3/  3 1029.3R
S CRANEY ISL VA  0742   50     180/  7/  8 1029.1R
CAPE HENRY BUOY  0800      50                N/A     2/13
64NM E OF VA BCH 0750   48 48  290/  2/  2 1029.9R   2/ 5   2/ 5
DUCK PIER NC     0742   48 53  160/  4/  5 1028.8R
44100 DUCK FRF   0745      50                N/A     2/13
44056 DUCK FRF   0800      52                N/A     2/13
OREGON INLET NC  0742   48 58   80/  3/  4 1029.1S
HATTERAS NC      0742   51 61   70/  3/  4 1028.6S
DIAMOND SHLS NC  0800   58 73   20/ 10/ 12 1028.6
CAPE LOOKOUT NC  0800           80/ 10/ 11 1028.2F
$$




USA.gov is the U.S. government's official web portal to all federal, state and local government web resources and services.